owner,sensor,date,latitude,longitude,vertical_datum,sea_water_temperature,qcFlag
Chevron,ioos:station:wmo:42372:2,2023-08-01T00:03:00Z,27.7790,-90.5190,12.9,31.6,11111222
Chevron,ioos:station:wmo:42372:2,2023-08-01T00:13:00Z,27.7790,-90.5190,13.1,31.6,11111222
Chevron,ioos:station:wmo:42372:2,2023-08-01T00:23:00Z,27.7790,-90.5190,13.0,31.6,11111222
Chevron,ioos:station:wmo:42372:2,2023-08-01T00:33:00Z,27.7790,-90.5190,12.9,31.6,11111222
Chevron,ioos:station:wmo:42372:2,2023-08-01T00:43:00Z,27.7790,-90.5190,12.9,31.6,11111222
Chevron,ioos:station:wmo:42372:2,2023-08-01T00:53:00Z,27.7790,-90.5190,13.0,31.6,11111222
Chevron,ioos:station:wmo:42372:2,2023-08-01T01:03:00Z,27.7790,-90.5190,12.9,31.6,11111222
Chevron,ioos:station:wmo:42372:2,2023-08-01T01:13:00Z,27.7790,-90.5190,13.0,31.6,11111222
Chevron,ioos:station:wmo:42372:2,2023-08-01T01:23:00Z,27.7790,-90.5190,13.0,31.6,11111222
Chevron,ioos:station:wmo:42372:2,2023-08-01T01:33:00Z,27.7790,-90.5190,12.9,31.7,11111222
Chevron,ioos:station:wmo:42372:2,2023-08-01T01:43:00Z,27.7790,-90.5190,13.1,31.7,11111222
Chevron,ioos:station:wmo:42372:2,2023-08-01T01:53:00Z,27.7790,-90.5190,13.0,31.7,11111222
Chevron,ioos:station:wmo:42372:2,2023-08-01T02:03:00Z,27.7790,-90.5190,12.9,31.7,11111222
Chevron,ioos:station:wmo:42372:2,2023-08-01T02:13:00Z,27.7790,-90.5190,13.0,31.7,11111222
Chevron,ioos:station:wmo:42372:2,2023-08-01T02:23:00Z,27.7790,-90.5190,13.1,31.7,11111222
Chevron,ioos:station:wmo:42372:2,2023-08-01T02:33:00Z,27.7790,-90.5190,13.0,31.7,11111222
Chevron,ioos:station:wmo:42372:2,2023-08-01T02:43:00Z,27.7790,-90.5190,12.9,31.7,11111222
Chevron,ioos:station:wmo:42372:2,2023-08-01T02:53:00Z,27.7790,-90.5190,13.0,31.7,11111222
Chevron,ioos:station:wmo:42372:2,2023-08-01T03:03:00Z,27.7790,-90.5190,13.1,31.7,11111222
Chevron,ioos:station:wmo:42372:2,2023-08-01T03:13:00Z,27.7790,-90.5190,13.1,31.7,11111222
Chevron,ioos:station:wmo:42372:2,2023-08-01T03:23:00Z,27.7790,-90.5190,13.0,31.7,11111222
Chevron,ioos:station:wmo:42372:2,2023-08-01T03:33:00Z,27.7790,-90.5190,13.1,31.7,11111222
Chevron,ioos:station:wmo:42372:2,2023-08-01T03:43:00Z,27.7790,-90.5190,13.1,31.6,11111222
Chevron,ioos:station:wmo:42372:2,2023-08-01T03:53:00Z,27.7790,-90.5190,13.0,31.6,11111222
Chevron,ioos:station:wmo:42372:2,2023-08-01T04:03:00Z,27.7790,-90.5190,13.0,31.7,11111222
Chevron,ioos:station:wmo:42372:2,2023-08-01T04:13:00Z,27.7790,-90.5190,13.1,31.7,11111222
Chevron,ioos:station:wmo:42372:2,2023-08-01T04:23:00Z,27.7790,-90.5190,13.0,31.6,11111222
Chevron,ioos:station:wmo:42372:2,2023-08-01T04:33:00Z,27.7790,-90.5190,12.9,31.5,11111222
Chevron,ioos:station:wmo:42372:2,2023-08-01T04:43:00Z,27.7790,-90.5190,12.9,31.5,11111222
Chevron,ioos:station:wmo:42372:2,2023-08-01T04:53:00Z,27.7790,-90.5190,13.0,31.5,11111222
Chevron,ioos:station:wmo:42372:2,2023-08-01T05:03:00Z,27.7790,-90.5190,12.9,31.5,11111222
Chevron,ioos:station:wmo:42372:2,2023-08-01T05:13:00Z,27.7790,-90.5190,13.0,31.5,11111222
Chevron,ioos:station:wmo:42372:2,2023-08-01T05:23:00Z,27.7790,-90.5190,12.9,31.4,11111222
Chevron,ioos:station:wmo:42372:2,2023-08-01T05:33:00Z,27.7790,-90.5190,12.8,31.4,11111222
Chevron,ioos:station:wmo:42372:2,2023-08-01T05:43:00Z,27.7790,-90.5190,13.0,31.4,11111222
Chevron,ioos:station:wmo:42372:2,2023-08-01T05:53:00Z,27.7790,-90.5190,12.9,31.4,11111222
Chevron,ioos:station:wmo:42372:2,2023-08-01T06:03:00Z,27.7790,-90.5190,12.9,31.4,11111222
Chevron,ioos:station:wmo:42372:2,2023-08-01T06:13:00Z,27.7790,-90.5190,12.9,31.3,11111222
Chevron,ioos:station:wmo:42372:2,2023-08-01T06:23:00Z,27.7790,-90.5190,12.8,31.4,11111222
Chevron,ioos:station:wmo:42372:2,2023-08-01T06:33:00Z,27.7790,-90.5190,13.0,31.3,11111222
Chevron,ioos:station:wmo:42372:2,2023-08-01T06:43:00Z,27.7790,-90.5190,13.0,31.3,11111222
Chevron,ioos:station:wmo:42372:2,2023-08-01T06:53:00Z,27.7790,-90.5190,12.9,31.2,11111222
Chevron,ioos:station:wmo:42372:2,2023-08-01T07:03:00Z,27.7790,-90.5190,12.8,31.2,11111222
Chevron,ioos:station:wmo:42372:2,2023-08-01T07:13:00Z,27.7790,-90.5190,12.8,31.2,11111222
Chevron,ioos:station:wmo:42372:2,2023-08-01T07:23:00Z,27.7790,-90.5190,12.8,31.1,11111222
Chevron,ioos:station:wmo:42372:2,2023-08-01T07:33:00Z,27.7790,-90.5190,12.8,31.2,11111222
Chevron,ioos:station:wmo:42372:2,2023-08-01T07:43:00Z,27.7790,-90.5190,12.8,31.1,11111222
Chevron,ioos:station:wmo:42372:2,2023-08-01T07:53:00Z,27.7790,-90.5190,12.7,31.0,11111222
Chevron,ioos:station:wmo:42372:2,2023-08-01T08:03:00Z,27.7790,-90.5190,12.5,31.0,11111222
Chevron,ioos:station:wmo:42372:2,2023-08-01T08:13:00Z,27.7790,-90.5190,12.6,30.9,11111222
Chevron,ioos:station:wmo:42372:2,2023-08-01T08:23:00Z,27.7790,-90.5190,12.8,31.1,11111222
Chevron,ioos:station:wmo:42372:2,2023-08-01T08:33:00Z,27.7790,-90.5190,12.8,31.0,11111222
Chevron,ioos:station:wmo:42372:2,2023-08-01T08:43:00Z,27.7790,-90.5190,12.6,31.0,11111222
Chevron,ioos:station:wmo:42372:2,2023-08-01T08:53:00Z,27.7790,-90.5190,12.9,31.1,11111222
Chevron,ioos:station:wmo:42372:2,2023-08-01T09:03:00Z,27.7790,-90.5190,12.9,31.1,11111222
Chevron,ioos:station:wmo:42372:2,2023-08-01T09:13:00Z,27.7790,-90.5190,12.9,31.1,11111222
Chevron,ioos:station:wmo:42372:2,2023-08-01T09:23:00Z,27.7790,-90.5190,12.8,31.1,11111222
Chevron,ioos:station:wmo:42372:2,2023-08-01T09:33:00Z,27.7790,-90.5190,12.9,31.2,11111222
Chevron,ioos:station:wmo:42372:2,2023-08-01T09:43:00Z,27.7790,-90.5190,12.6,31.2,11111222
Chevron,ioos:station:wmo:42372:2,2023-08-01T09:53:00Z,27.7790,-90.5190,12.8,31.1,11111222
Chevron,ioos:station:wmo:42372:2,2023-08-01T10:03:00Z,27.7790,-90.5190,13.0,31.1,11111222
Chevron,ioos:station:wmo:42372:2,2023-08-01T10:13:00Z,27.7790,-90.5190,12.8,31.1,11111222
Chevron,ioos:station:wmo:42372:2,2023-08-01T10:23:00Z,27.7790,-90.5190,13.0,31.1,11111222
Chevron,ioos:station:wmo:42372:2,2023-08-01T10:33:00Z,27.7790,-90.5190,12.9,31.1,11111222
Chevron,ioos:station:wmo:42372:2,2023-08-01T10:43:00Z,27.7790,-90.5190,13.0,31.2,11111222
Chevron,ioos:station:wmo:42372:2,2023-08-01T10:53:00Z,27.7790,-90.5190,12.9,31.2,11111222
Chevron,ioos:station:wmo:42372:2,2023-08-01T11:03:00Z,27.7790,-90.5190,12.9,31.2,11111222
Chevron,ioos:station:wmo:42372:2,2023-08-01T11:13:00Z,27.7790,-90.5190,13.0,31.3,11111222
Chevron,ioos:station:wmo:42372:2,2023-08-01T11:23:00Z,27.7790,-90.5190,13.0,31.3,11111222
Chevron,ioos:station:wmo:42372:2,2023-08-01T11:33:00Z,27.7790,-90.5190,13.0,31.3,11111222
Chevron,ioos:station:wmo:42372:2,2023-08-01T11:43:00Z,27.7790,-90.5190,13.1,31.3,11111222
Chevron,ioos:station:wmo:42372:2,2023-08-01T11:53:00Z,27.7790,-90.5190,13.0,31.3,11111222
Chevron,ioos:station:wmo:42372:2,2023-08-01T12:03:00Z,27.7790,-90.5190,13.0,31.3,11111222
Chevron,ioos:station:wmo:42372:2,2023-08-01T12:13:00Z,27.7790,-90.5190,13.1,31.3,11111222
Chevron,ioos:station:wmo:42372:2,2023-08-01T12:23:00Z,27.7790,-90.5190,13.0,31.3,11111222
Chevron,ioos:station:wmo:42372:2,2023-08-01T12:33:00Z,27.7790,-90.5190,13.0,31.3,11111222
Chevron,ioos:station:wmo:42372:2,2023-08-01T12:43:00Z,27.7790,-90.5190,13.0,31.3,11111222
Chevron,ioos:station:wmo:42372:2,2023-08-01T12:53:00Z,27.7790,-90.5190,13.1,31.3,11111222
Chevron,ioos:station:wmo:42372:2,2023-08-01T13:03:00Z,27.7790,-90.5190,13.1,31.2,11111222
Chevron,ioos:station:wmo:42372:2,2023-08-01T13:13:00Z,27.7790,-90.5190,12.9,31.2,11111222
Chevron,ioos:station:wmo:42372:2,2023-08-01T13:23:00Z,27.7790,-90.5190,13.0,31.2,11111222
Chevron,ioos:station:wmo:42372:2,2023-08-01T13:33:00Z,27.7790,-90.5190,13.0,31.2,11111222
Chevron,ioos:station:wmo:42372:2,2023-08-01T13:43:00Z,27.7790,-90.5190,12.9,31.2,11111222
Chevron,ioos:station:wmo:42372:2,2023-08-01T13:53:00Z,27.7790,-90.5190,12.9,31.2,11111222
Chevron,ioos:station:wmo:42372:2,2023-08-01T14:03:00Z,27.7790,-90.5190,12.9,31.2,11111222
Chevron,ioos:station:wmo:42372:2,2023-08-01T14:13:00Z,27.7790,-90.5190,13.0,31.3,11111222
Chevron,ioos:station:wmo:42372:2,2023-08-01T14:23:00Z,27.7790,-90.5190,13.0,31.3,11111222
Chevron,ioos:station:wmo:42372:2,2023-08-01T14:33:00Z,27.7790,-90.5190,12.8,31.3,11111222
Chevron,ioos:station:wmo:42372:2,2023-08-01T14:43:00Z,27.7790,-90.5190,13.0,31.3,11111222
Chevron,ioos:station:wmo:42372:2,2023-08-01T14:53:00Z,27.7790,-90.5190,13.1,31.3,11111222
Chevron,ioos:station:wmo:42372:2,2023-08-01T15:03:00Z,27.7790,-90.5190,13.0,31.4,11111222
Chevron,ioos:station:wmo:42372:2,2023-08-01T15:13:00Z,27.7790,-90.5190,12.9,31.5,11111222
Chevron,ioos:station:wmo:42372:2,2023-08-01T15:23:00Z,27.7790,-90.5190,13.1,31.5,11111222
Chevron,ioos:station:wmo:42372:2,2023-08-01T15:33:00Z,27.7790,-90.5190,13.0,31.6,11111222
Chevron,ioos:station:wmo:42372:2,2023-08-01T15:43:00Z,27.7790,-90.5190,13.1,31.5,11111222
Chevron,ioos:station:wmo:42372:2,2023-08-01T15:53:00Z,27.7790,-90.5190,13.2,31.6,11111222
Chevron,ioos:station:wmo:42372:2,2023-08-01T16:03:00Z,27.7790,-90.5190,13.2,31.6,11111222
Chevron,ioos:station:wmo:42372:2,2023-08-01T16:13:00Z,27.7790,-90.5190,13.0,31.6,11111222
Chevron,ioos:station:wmo:42372:2,2023-08-01T16:23:00Z,27.7790,-90.5190,13.2,31.5,11111222
Chevron,ioos:station:wmo:42372:2,2023-08-01T16:33:00Z,27.7790,-90.5190,13.1,31.5,11111222
Chevron,ioos:station:wmo:42372:2,2023-08-01T16:43:00Z,27.7790,-90.5190,13.1,31.5,11111222
Chevron,ioos:station:wmo:42372:2,2023-08-01T16:53:00Z,27.7790,-90.5190,13.0,31.4,11111222
Chevron,ioos:station:wmo:42372:2,2023-08-01T17:03:00Z,27.7790,-90.5190,13.0,31.4,11111222
Chevron,ioos:station:wmo:42372:2,2023-08-01T17:13:00Z,27.7790,-90.5190,13.0,31.4,11111222
Chevron,ioos:station:wmo:42372:2,2023-08-01T17:23:00Z,27.7790,-90.5190,13.0,31.4,11111222
Chevron,ioos:station:wmo:42372:2,2023-08-01T17:33:00Z,27.7790,-90.5190,13.0,31.4,11111222
Chevron,ioos:station:wmo:42372:2,2023-08-01T17:43:00Z,27.7790,-90.5190,13.1,31.4,11111222
Chevron,ioos:station:wmo:42372:2,2023-08-01T17:53:00Z,27.7790,-90.5190,13.0,31.5,11111222
Chevron,ioos:station:wmo:42372:2,2023-08-01T18:03:00Z,27.7790,-90.5190,13.0,31.4,11111222
Chevron,ioos:station:wmo:42372:2,2023-08-01T18:13:00Z,27.7790,-90.5190,13.0,31.4,11111222
Chevron,ioos:station:wmo:42372:2,2023-08-01T18:23:00Z,27.7790,-90.5190,12.9,31.4,11111222
Chevron,ioos:station:wmo:42372:2,2023-08-01T18:33:00Z,27.7790,-90.5190,13.1,31.5,11111222
Chevron,ioos:station:wmo:42372:2,2023-08-01T18:43:00Z,27.7790,-90.5190,13.1,31.5,11111222
Chevron,ioos:station:wmo:42372:2,2023-08-01T18:53:00Z,27.7790,-90.5190,13.0,31.5,11111222
Chevron,ioos:station:wmo:42372:2,2023-08-01T19:03:00Z,27.7790,-90.5190,13.0,31.5,11111222
Chevron,ioos:station:wmo:42372:2,2023-08-01T19:13:00Z,27.7790,-90.5190,13.0,31.5,11111222
Chevron,ioos:station:wmo:42372:2,2023-08-01T19:23:00Z,27.7790,-90.5190,13.1,31.5,11111222
Chevron,ioos:station:wmo:42372:2,2023-08-01T19:33:00Z,27.7790,-90.5190,13.0,31.5,11111222
Chevron,ioos:station:wmo:42372:2,2023-08-01T19:43:00Z,27.7790,-90.5190,13.1,31.5,11111222
Chevron,ioos:station:wmo:42372:2,2023-08-01T19:53:00Z,27.7790,-90.5190,12.9,31.5,11111222
Chevron,ioos:station:wmo:42372:2,2023-08-01T20:03:00Z,27.7790,-90.5190,13.0,31.4,11111222
Chevron,ioos:station:wmo:42372:2,2023-08-01T20:13:00Z,27.7790,-90.5190,12.9,31.4,11111222
Chevron,ioos:station:wmo:42372:2,2023-08-01T20:23:00Z,27.7790,-90.5190,12.9,31.4,11111222
Chevron,ioos:station:wmo:42372:2,2023-08-01T20:33:00Z,27.7790,-90.5190,13.0,31.4,11111222
Chevron,ioos:station:wmo:42372:2,2023-08-01T20:43:00Z,27.7790,-90.5190,12.9,31.4,11111222
Chevron,ioos:station:wmo:42372:2,2023-08-01T20:53:00Z,27.7790,-90.5190,12.7,31.3,11111222
Chevron,ioos:station:wmo:42372:2,2023-08-01T21:03:00Z,27.7790,-90.5190,12.8,31.3,11111222
Chevron,ioos:station:wmo:42372:2,2023-08-01T21:13:00Z,27.7790,-90.5190,12.8,31.4,11111222
Chevron,ioos:station:wmo:42372:2,2023-08-01T21:23:00Z,27.7790,-90.5190,12.9,31.4,11111222
Chevron,ioos:station:wmo:42372:2,2023-08-01T21:33:00Z,27.7790,-90.5190,12.8,31.3,11111222
Chevron,ioos:station:wmo:42372:2,2023-08-01T21:43:00Z,27.7790,-90.5190,12.8,31.4,11111222
Chevron,ioos:station:wmo:42372:2,2023-08-01T21:53:00Z,27.7790,-90.5190,12.8,31.4,11111222
Chevron,ioos:station:wmo:42372:2,2023-08-01T22:03:00Z,27.7790,-90.5190,12.7,31.4,11111222
Chevron,ioos:station:wmo:42372:2,2023-08-01T22:13:00Z,27.7790,-90.5190,12.9,31.3,11111222
Chevron,ioos:station:wmo:42372:2,2023-08-01T22:23:00Z,27.7790,-90.5190,12.7,31.4,11111222
Chevron,ioos:station:wmo:42372:2,2023-08-01T22:33:00Z,27.7790,-90.5190,12.7,31.4,11111222
Chevron,ioos:station:wmo:42372:2,2023-08-01T22:43:00Z,27.7790,-90.5190,12.9,31.4,11111222
Chevron,ioos:station:wmo:42372:2,2023-08-01T22:53:00Z,27.7790,-90.5190,13.0,31.4,11111222
Chevron,ioos:station:wmo:42372:2,2023-08-01T23:03:00Z,27.7790,-90.5190,12.9,31.4,11111222
Chevron,ioos:station:wmo:42372:2,2023-08-01T23:13:00Z,27.7790,-90.5190,12.9,31.5,11111222
Chevron,ioos:station:wmo:42372:2,2023-08-01T23:23:00Z,27.7790,-90.5190,12.8,31.5,11111222
Chevron,ioos:station:wmo:42372:2,2023-08-01T23:33:00Z,27.7790,-90.5190,13.0,31.5,11111222
Chevron,ioos:station:wmo:42372:2,2023-08-01T23:43:00Z,27.7790,-90.5190,12.9,31.5,11111222
Chevron,ioos:station:wmo:42372:2,2023-08-01T23:53:00Z,27.7790,-90.5190,12.8,31.5,11111222
Chevron,ioos:station:wmo:42372:2,2023-08-02T00:03:00Z,27.7790,-90.5190,13.0,31.5,11111222
Chevron,ioos:station:wmo:42372:2,2023-08-02T00:13:00Z,27.7790,-90.5190,12.9,31.5,11111222
Chevron,ioos:station:wmo:42372:2,2023-08-02T00:23:00Z,27.7790,-90.5190,12.9,31.5,11111222
Chevron,ioos:station:wmo:42372:2,2023-08-02T00:33:00Z,27.7790,-90.5190,12.9,31.5,11111222
Chevron,ioos:station:wmo:42372:2,2023-08-02T00:43:00Z,27.7790,-90.5190,12.9,31.5,11111222
Chevron,ioos:station:wmo:42372:2,2023-08-02T00:53:00Z,27.7790,-90.5190,12.9,31.4,11111222
Chevron,ioos:station:wmo:42372:2,2023-08-02T01:03:00Z,27.7790,-90.5190,12.9,31.4,11111222
Chevron,ioos:station:wmo:42372:2,2023-08-02T01:13:00Z,27.7790,-90.5190,12.9,31.4,11111222
Chevron,ioos:station:wmo:42372:2,2023-08-02T01:23:00Z,27.7790,-90.5190,12.8,31.4,11111222
Chevron,ioos:station:wmo:42372:2,2023-08-02T01:33:00Z,27.7790,-90.5190,13.0,31.4,11111222
Chevron,ioos:station:wmo:42372:2,2023-08-02T01:43:00Z,27.7790,-90.5190,12.9,31.5,11111222
Chevron,ioos:station:wmo:42372:2,2023-08-02T01:53:00Z,27.7790,-90.5190,12.9,31.5,11111222
Chevron,ioos:station:wmo:42372:2,2023-08-02T02:03:00Z,27.7790,-90.5190,13.0,31.5,11111222
Chevron,ioos:station:wmo:42372:2,2023-08-02T02:13:00Z,27.7790,-90.5190,12.8,31.5,11111222
Chevron,ioos:station:wmo:42372:2,2023-08-02T02:23:00Z,27.7790,-90.5190,12.9,31.4,11111222
Chevron,ioos:station:wmo:42372:2,2023-08-02T02:33:00Z,27.7790,-90.5190,12.9,31.5,11111222
Chevron,ioos:station:wmo:42372:2,2023-08-02T02:43:00Z,27.7790,-90.5190,13.0,31.5,11111222
Chevron,ioos:station:wmo:42372:2,2023-08-02T02:53:00Z,27.7790,-90.5190,13.0,31.5,11111222
Chevron,ioos:station:wmo:42372:2,2023-08-02T03:03:00Z,27.7790,-90.5190,12.9,31.5,11111222
Chevron,ioos:station:wmo:42372:2,2023-08-02T03:13:00Z,27.7790,-90.5190,13.1,31.5,11111222
Chevron,ioos:station:wmo:42372:2,2023-08-02T03:23:00Z,27.7790,-90.5190,13.0,31.5,11111222
Chevron,ioos:station:wmo:42372:2,2023-08-02T03:33:00Z,27.7790,-90.5190,12.9,31.5,11111222
Chevron,ioos:station:wmo:42372:2,2023-08-02T03:43:00Z,27.7790,-90.5190,12.9,31.5,11111222
Chevron,ioos:station:wmo:42372:2,2023-08-02T03:53:00Z,27.7790,-90.5190,12.9,31.5,11111222
Chevron,ioos:station:wmo:42372:2,2023-08-02T04:03:00Z,27.7790,-90.5190,13.0,31.5,11111222
Chevron,ioos:station:wmo:42372:2,2023-08-02T04:13:00Z,27.7790,-90.5190,12.9,31.5,11111222
Chevron,ioos:station:wmo:42372:2,2023-08-02T04:23:00Z,27.7790,-90.5190,12.9,31.5,11111222
Chevron,ioos:station:wmo:42372:2,2023-08-02T04:33:00Z,27.7790,-90.5190,12.9,31.5,11111222
Chevron,ioos:station:wmo:42372:2,2023-08-02T04:43:00Z,27.7790,-90.5190,13.0,31.6,11111222
Chevron,ioos:station:wmo:42372:2,2023-08-02T04:53:00Z,27.7790,-90.5190,13.1,31.6,11111222
Chevron,ioos:station:wmo:42372:2,2023-08-02T05:03:00Z,27.7790,-90.5190,13.1,31.6,11111222
Chevron,ioos:station:wmo:42372:2,2023-08-02T05:13:00Z,27.7790,-90.5190,13.0,31.6,11111222
Chevron,ioos:station:wmo:42372:2,2023-08-02T05:23:00Z,27.7790,-90.5190,13.0,31.6,11111222
Chevron,ioos:station:wmo:42372:2,2023-08-02T05:33:00Z,27.7790,-90.5190,13.0,31.6,11111222
Chevron,ioos:station:wmo:42372:2,2023-08-02T05:44:00Z,27.7790,-90.5190,13.0,31.6,11111222
Chevron,ioos:station:wmo:42372:2,2023-08-02T05:54:00Z,27.7790,-90.5190,13.0,31.6,11111222
Chevron,ioos:station:wmo:42372:2,2023-08-02T06:04:00Z,27.7790,-90.5190,13.0,31.6,11111222
Chevron,ioos:station:wmo:42372:2,2023-08-02T06:14:00Z,27.7790,-90.5190,13.1,31.6,11111222
Chevron,ioos:station:wmo:42372:2,2023-08-02T06:24:00Z,27.7790,-90.5190,13.1,31.6,11111222
Chevron,ioos:station:wmo:42372:2,2023-08-02T06:34:00Z,27.7790,-90.5190,13.0,31.6,11111222
Chevron,ioos:station:wmo:42372:2,2023-08-02T06:44:00Z,27.7790,-90.5190,13.0,31.6,11111222
Chevron,ioos:station:wmo:42372:2,2023-08-02T06:54:00Z,27.7790,-90.5190,13.1,31.6,11111222
Chevron,ioos:station:wmo:42372:2,2023-08-02T07:04:00Z,27.7790,-90.5190,13.0,31.6,11111222
Chevron,ioos:station:wmo:42372:2,2023-08-02T07:14:00Z,27.7790,-90.5190,12.9,31.7,11111222
Chevron,ioos:station:wmo:42372:2,2023-08-02T07:24:00Z,27.7790,-90.5190,13.0,31.6,11111222
Chevron,ioos:station:wmo:42372:2,2023-08-02T07:34:00Z,27.7790,-90.5190,13.1,31.6,11111222
Chevron,ioos:station:wmo:42372:2,2023-08-02T07:44:00Z,27.7790,-90.5190,13.1,31.6,11111222
Chevron,ioos:station:wmo:42372:2,2023-08-02T07:54:00Z,27.7790,-90.5190,12.9,31.5,11111222
Chevron,ioos:station:wmo:42372:2,2023-08-02T08:04:00Z,27.7790,-90.5190,13.0,31.4,11111222
Chevron,ioos:station:wmo:42372:2,2023-08-02T08:14:00Z,27.7790,-90.5190,13.1,31.4,11111222
Chevron,ioos:station:wmo:42372:2,2023-08-02T08:24:00Z,27.7790,-90.5190,12.8,31.4,11111222
Chevron,ioos:station:wmo:42372:2,2023-08-02T08:34:00Z,27.7790,-90.5190,12.9,31.5,11111222
Chevron,ioos:station:wmo:42372:2,2023-08-02T08:44:00Z,27.7790,-90.5190,13.2,31.6,11111222
Chevron,ioos:station:wmo:42372:2,2023-08-02T08:54:00Z,27.7790,-90.5190,13.0,31.6,11111222
Chevron,ioos:station:wmo:42372:2,2023-08-02T09:04:00Z,27.7790,-90.5190,13.0,31.6,11111222
Chevron,ioos:station:wmo:42372:2,2023-08-02T09:14:00Z,27.7790,-90.5190,13.1,31.6,11111222
Chevron,ioos:station:wmo:42372:2,2023-08-02T09:24:00Z,27.7790,-90.5190,13.0,31.5,11111222
Chevron,ioos:station:wmo:42372:2,2023-08-02T09:34:00Z,27.7790,-90.5190,13.0,31.4,11111222
Chevron,ioos:station:wmo:42372:2,2023-08-02T09:44:00Z,27.7790,-90.5190,13.0,31.4,11111222
Chevron,ioos:station:wmo:42372:2,2023-08-02T09:54:00Z,27.7790,-90.5190,13.0,31.4,11111222
Chevron,ioos:station:wmo:42372:2,2023-08-02T10:04:00Z,27.7790,-90.5190,13.0,31.4,11111222
Chevron,ioos:station:wmo:42372:2,2023-08-02T10:14:00Z,27.7790,-90.5190,13.1,31.4,11111222
Chevron,ioos:station:wmo:42372:2,2023-08-02T10:24:00Z,27.7790,-90.5190,13.0,31.4,11111222
Chevron,ioos:station:wmo:42372:2,2023-08-02T10:34:00Z,27.7790,-90.5190,12.9,31.5,11111222
Chevron,ioos:station:wmo:42372:2,2023-08-02T10:44:00Z,27.7790,-90.5190,13.0,31.4,11111222
Chevron,ioos:station:wmo:42372:2,2023-08-02T10:54:00Z,27.7790,-90.5190,12.8,31.4,11111222
Chevron,ioos:station:wmo:42372:2,2023-08-02T11:04:00Z,27.7790,-90.5190,13.0,31.5,11111222
Chevron,ioos:station:wmo:42372:2,2023-08-02T11:14:00Z,27.7790,-90.5190,13.0,31.5,11111222
Chevron,ioos:station:wmo:42372:2,2023-08-02T11:24:00Z,27.7790,-90.5190,12.9,31.5,11111222
Chevron,ioos:station:wmo:42372:2,2023-08-02T11:34:00Z,27.7790,-90.5190,13.0,31.6,11111222
Chevron,ioos:station:wmo:42372:2,2023-08-02T11:44:00Z,27.7790,-90.5190,13.0,31.5,11111222
Chevron,ioos:station:wmo:42372:2,2023-08-02T11:54:00Z,27.7790,-90.5190,13.0,31.5,11111222
Chevron,ioos:station:wmo:42372:2,2023-08-02T12:04:00Z,27.7790,-90.5190,13.1,31.5,11111222
Chevron,ioos:station:wmo:42372:2,2023-08-02T12:14:00Z,27.7790,-90.5190,13.1,31.6,11111222
Chevron,ioos:station:wmo:42372:2,2023-08-02T12:24:00Z,27.7790,-90.5190,13.0,31.5,11111222
Chevron,ioos:station:wmo:42372:2,2023-08-02T12:34:00Z,27.7790,-90.5190,12.9,31.5,11111222
Chevron,ioos:station:wmo:42372:2,2023-08-02T12:44:00Z,27.7790,-90.5190,12.9,31.4,11111222
Chevron,ioos:station:wmo:42372:2,2023-08-02T12:54:00Z,27.7790,-90.5190,13.0,31.4,11111222
Chevron,ioos:station:wmo:42372:2,2023-08-02T13:04:00Z,27.7790,-90.5190,12.9,31.4,11111222
Chevron,ioos:station:wmo:42372:2,2023-08-02T13:14:00Z,27.7790,-90.5190,13.1,31.5,11111222
Chevron,ioos:station:wmo:42372:2,2023-08-02T13:24:00Z,27.7790,-90.5190,13.0,31.4,11111222
Chevron,ioos:station:wmo:42372:2,2023-08-02T13:34:00Z,27.7790,-90.5190,13.0,31.4,11111222
Chevron,ioos:station:wmo:42372:2,2023-08-02T13:44:00Z,27.7790,-90.5190,12.9,31.3,11111222
Chevron,ioos:station:wmo:42372:2,2023-08-02T13:54:00Z,27.7790,-90.5190,12.8,31.2,11111222
Chevron,ioos:station:wmo:42372:2,2023-08-02T14:04:00Z,27.7790,-90.5190,12.9,31.2,11111222
Chevron,ioos:station:wmo:42372:2,2023-08-02T14:14:00Z,27.7790,-90.5190,12.9,31.2,11111222
Chevron,ioos:station:wmo:42372:2,2023-08-02T14:24:00Z,27.7790,-90.5190,12.8,31.2,11111222
Chevron,ioos:station:wmo:42372:2,2023-08-02T14:34:00Z,27.7790,-90.5190,12.9,31.2,11111222
Chevron,ioos:station:wmo:42372:2,2023-08-02T14:44:00Z,27.7790,-90.5190,12.9,31.2,11111222
Chevron,ioos:station:wmo:42372:2,2023-08-02T14:54:00Z,27.7790,-90.5190,12.9,31.3,11111222
Chevron,ioos:station:wmo:42372:2,2023-08-02T15:04:00Z,27.7790,-90.5190,12.9,31.2,11111222
Chevron,ioos:station:wmo:42372:2,2023-08-02T15:14:00Z,27.7790,-90.5190,13.0,31.2,11111222
Chevron,ioos:station:wmo:42372:2,2023-08-02T15:24:00Z,27.7790,-90.5190,12.9,31.2,11111222
Chevron,ioos:station:wmo:42372:2,2023-08-02T15:34:00Z,27.7790,-90.5190,13.0,31.2,11111222
Chevron,ioos:station:wmo:42372:2,2023-08-02T15:44:00Z,27.7790,-90.5190,13.0,31.3,11111222
Chevron,ioos:station:wmo:42372:2,2023-08-02T15:54:00Z,27.7790,-90.5190,12.9,31.2,11111222
Chevron,ioos:station:wmo:42372:2,2023-08-02T16:04:00Z,27.7790,-90.5190,12.9,31.2,11111222
Chevron,ioos:station:wmo:42372:2,2023-08-02T16:14:00Z,27.7790,-90.5190,12.8,31.3,11111222
Chevron,ioos:station:wmo:42372:2,2023-08-02T16:24:00Z,27.7790,-90.5190,13.1,31.3,11111222
Chevron,ioos:station:wmo:42372:2,2023-08-02T16:34:00Z,27.7790,-90.5190,13.0,31.3,11111222
Chevron,ioos:station:wmo:42372:2,2023-08-02T16:44:00Z,27.7790,-90.5190,12.9,31.3,11111222
Chevron,ioos:station:wmo:42372:2,2023-08-02T16:54:00Z,27.7790,-90.5190,13.0,31.3,11111222
Chevron,ioos:station:wmo:42372:2,2023-08-02T17:04:00Z,27.7790,-90.5190,12.9,31.3,11111222
Chevron,ioos:station:wmo:42372:2,2023-08-02T17:14:00Z,27.7790,-90.5190,13.0,31.4,11111222
Chevron,ioos:station:wmo:42372:2,2023-08-02T17:24:00Z,27.7790,-90.5190,13.1,31.3,11111222
Chevron,ioos:station:wmo:42372:2,2023-08-02T17:34:00Z,27.7790,-90.5190,13.0,31.3,11111222
Chevron,ioos:station:wmo:42372:2,2023-08-02T17:44:00Z,27.7790,-90.5190,13.0,31.3,11111222
Chevron,ioos:station:wmo:42372:2,2023-08-02T17:54:00Z,27.7790,-90.5190,13.0,31.3,11111222
Chevron,ioos:station:wmo:42372:2,2023-08-02T18:04:00Z,27.7790,-90.5190,12.9,31.3,11111222
Chevron,ioos:station:wmo:42372:2,2023-08-02T18:14:00Z,27.7790,-90.5190,13.0,31.3,11111222
Chevron,ioos:station:wmo:42372:2,2023-08-02T18:24:00Z,27.7790,-90.5190,13.0,31.3,11111222
Chevron,ioos:station:wmo:42372:2,2023-08-02T18:34:00Z,27.7790,-90.5190,13.2,31.3,11111222
Chevron,ioos:station:wmo:42372:2,2023-08-02T18:44:00Z,27.7790,-90.5190,13.0,31.3,11111222
Chevron,ioos:station:wmo:42372:2,2023-08-02T18:54:00Z,27.7790,-90.5190,13.0,31.3,11111222
Chevron,ioos:station:wmo:42372:2,2023-08-02T19:04:00Z,27.7790,-90.5190,13.1,31.3,11111222
Chevron,ioos:station:wmo:42372:2,2023-08-02T19:14:00Z,27.7790,-90.5190,13.0,31.4,11111222
Chevron,ioos:station:wmo:42372:2,2023-08-02T19:24:00Z,27.7790,-90.5190,12.9,31.3,11111222
Chevron,ioos:station:wmo:42372:2,2023-08-02T19:34:00Z,27.7790,-90.5190,13.0,31.4,11111222